Time,TemperatureF,DewpointF,PressureIn,WindDirection,WindDirectionDegrees,WindSpeedMPH,WindSpeedGustMPH,Humidity,HourlyPrecipIn,Conditions,Clouds,dailyrainin,SolarRadiationWatts/m^2,SoftwareType,DateUTC
2013-02-17 00:02:00,51.5,36.7,29.99,West,277,0.0,0.0,57,0.00,,,0.00,0,HR-IXP-WINDi_r2_v1.2,2013-02-17 08:02:00,
2013-02-17 00:07:00,51.4,36.2,29.99,West,277,0.0,1.0,56,0.00,,,0.00,0,HR-IXP-WINDi_r2_v1.2,2013-02-17 08:07:00,
2013-02-17 00:12:00,51.7,36.5,30.00,West,277,0.0,1.0,56,0.00,,,0.00,0,HR-IXP-WINDi_r2_v1.2,2013-02-17 08:12:00,
2013-02-17 00:17:00,51.8,36.6,30.00,West,277,0.0,2.0,56,0.00,,,0.00,0,HR-IXP-WINDi_r2_v1.2,2013-02-17 08:17:00,
2013-02-17 00:22:00,51.5,36.3,30.00,West,277,0.0,2.0,56,0.00,,,0.00,0,HR-IXP-WINDi_r2_v1.2,2013-02-17 08:22:00,
2013-02-17 00:28:00,51.5,36.3,29.99,West,277,1.0,1.0,56,0.00,,,0.00,0,HR-IXP-WINDi_r2_v1.2,2013-02-17 08:28:00,
2013-02-17 00:33:00,50.9,36.2,29.99,West,277,0.0,1.0,57,0.00,,,0.00,0,HR-IXP-WINDi_r2_v1.2,2013-02-17 08:33:00,
2013-02-17 00:38:00,50.8,36.1,29.99,West,277,1.0,2.0,57,0.00,,,0.00,0,HR-IXP-WINDi_r2_v1.2,2013-02-17 08:38:00,
2013-02-17 00:43:00,50.6,36.3,30.00,West,277,0.0,2.0,58,0.00,,,0.00,0,HR-IXP-WINDi_r2_v1.2,2013-02-17 08:43:00,
2013-02-17 00:48:00,50.7,36.9,30.00,West,277,0.0,2.0,59,0.00,,,0.00,0,HR-IXP-WINDi_r2_v1.2,2013-02-17 08:48:00,
2013-02-17 00:54:00,50.9,37.0,30.00,West,277,1.0,1.0,59,0.00,,,0.00,0,HR-IXP-WINDi_r2_v1.2,2013-02-17 08:54:00,
2013-02-17 00:59:00,50.7,37.7,29.99,West,277,0.0,2.0,61,0.00,,,0.00,0,HR-IXP-WINDi_r2_v1.2,2013-02-17 08:59:00,
2013-02-17 01:04:00,51.1,38.1,30.00,West,277,0.0,2.0,61,0.00,,,0.00,0,HR-IXP-WINDi_r2_v1.2,2013-02-17 09:04:00,
2013-02-17 01:09:00,51.4,38.4,29.99,West,277,0.0,2.0,61,0.00,,,0.00,0,HR-IXP-WINDi_r2_v1.2,2013-02-17 09:09:00,
2013-02-17 01:15:00,50.9,37.9,29.99,West,277,0.0,1.0,61,0.00,,,0.00,0,HR-IXP-WINDi_r2_v1.2,2013-02-17 09:15:00,
2013-02-17 01:20:00,50.5,38.3,29.99,West,277,0.0,1.0,63,0.00,,,0.00,0,HR-IXP-WINDi_r2_v1.2,2013-02-17 09:20:00,
2013-02-17 01:25:00,50.5,39.1,29.99,West,277,0.0,1.0,65,0.00,,,0.00,0,HR-IXP-WINDi_r2_v1.2,2013-02-17 09:25:00,
2013-02-17 01:30:00,50.7,39.3,29.99,West,277,0.0,1.0,65,0.00,,,0.00,0,HR-IXP-WINDi_r2_v1.2,2013-02-17 09:30:00,
2013-02-17 01:35:00,49.7,38.0,29.99,West,277,0.0,1.0,64,0.00,,,0.00,0,HR-IXP-WINDi_r2_v1.2,2013-02-17 09:35:00,
2013-02-17 01:40:00,49.5,39.0,29.99,West,277,0.0,2.0,67,0.00,,,0.00,0,HR-IXP-WINDi_r2_v1.2,2013-02-17 09:40:00,
2013-02-17 01:46:00,49.9,40.1,29.99,West,277,0.0,2.0,69,0.00,,,0.00,0,HR-IXP-WINDi_r2_v1.2,2013-02-17 09:46:00,
2013-02-17 01:51:00,50.1,40.3,29.98,West,277,0.0,1.0,69,0.00,,,0.00,0,HR-IXP-WINDi_r2_v1.2,2013-02-17 09:51:00,
2013-02-17 01:56:00,50.1,40.3,29.98,West,277,0.0,1.0,69,0.00,,,0.00,0,HR-IXP-WINDi_r2_v1.2,2013-02-17 09:56:00,
2013-02-17 02:01:00,49.6,39.4,29.98,West,277,0.0,0.0,68,0.00,,,0.00,0,HR-IXP-WINDi_r2_v1.2,2013-02-17 10:01:00,
2013-02-17 02:06:00,49.2,39.4,29.99,West,277,0.0,0.0,69,0.00,,,0.00,0,HR-IXP-WINDi_r2_v1.2,2013-02-17 10:06:00,
2013-02-17 02:12:00,48.4,38.7,29.98,West,277,1.0,1.0,69,0.00,,,0.00,0,HR-IXP-WINDi_r2_v1.2,2013-02-17 10:12:00,
2013-02-17 02:17:00,48.1,39.1,29.98,West,277,0.0,1.0,71,0.00,,,0.00,0,HR-IXP-WINDi_r2_v1.2,2013-02-17 10:17:00,
2013-02-17 02:22:00,48.3,39.3,29.98,West,277,0.0,1.0,71,0.00,,,0.00,0,HR-IXP-WINDi_r2_v1.2,2013-02-17 10:22:00,
2013-02-17 02:27:00,48.4,39.4,29.98,West,277,0.0,1.0,71,0.00,,,0.00,0,HR-IXP-WINDi_r2_v1.2,2013-02-17 10:27:00,
2013-02-17 02:33:00,48.4,39.7,29.98,West,277,0.0,1.0,72,0.00,,,0.00,0,HR-IXP-WINDi_r2_v1.2,2013-02-17 10:33:00,
2013-02-17 02:38:00,48.1,39.5,29.98,West,277,0.0,0.0,72,0.00,,,0.00,0,HR-IXP-WINDi_r2_v1.2,2013-02-17 10:38:00,
2013-02-17 02:43:00,47.2,38.6,29.98,West,277,0.0,1.0,72,0.00,,,0.00,0,HR-IXP-WINDi_r2_v1.2,2013-02-17 10:43:00,
2013-02-17 02:48:00,46.6,38.4,29.98,West,277,0.0,1.0,73,0.00,,,0.00,0,HR-IXP-WINDi_r2_v1.2,2013-02-17 10:48:00,
2013-02-17 02:53:00,46.5,38.6,29.98,West,277,0.0,1.0,74,0.00,,,0.00,0,HR-IXP-WINDi_r2_v1.2,2013-02-17 10:53:00,
2013-02-17 02:59:00,46.7,39.2,29.98,West,277,0.0,1.0,75,0.00,,,0.00,0,HR-IXP-WINDi_r2_v1.2,2013-02-17 10:59:00,
2013-02-17 03:04:00,46.9,39.3,29.98,West,277,0.0,1.0,75,0.00,,,0.00,0,HR-IXP-WINDi_r2_v1.2,2013-02-17 11:04:00,
2013-02-17 03:09:00,46.9,39.3,29.98,West,277,0.0,1.0,75,0.00,,,0.00,0,HR-IXP-WINDi_r2_v1.2,2013-02-17 11:09:00,
2013-02-17 03:14:00,46.5,39.0,29.97,West,277,0.0,0.0,75,0.00,,,0.00,0,HR-IXP-WINDi_r2_v1.2,2013-02-17 11:14:00,
2013-02-17 03:19:00,46.5,39.3,29.97,West,277,0.0,1.0,76,0.00,,,0.00,0,HR-IXP-WINDi_r2_v1.2,2013-02-17 11:19:00,
2013-02-17 03:24:00,46.3,39.1,29.97,West,277,0.0,1.0,76,0.00,,,0.00,0,HR-IXP-WINDi_r2_v1.2,2013-02-17 11:24:00,
2013-02-17 03:29:00,46.2,39.0,29.97,West,277,0.0,1.0,76,0.00,,,0.00,0,HR-IXP-WINDi_r2_v1.2,2013-02-17 11:29:00,
2013-02-17 03:35:00,46.3,39.8,29.97,West,277,0.0,0.0,78,0.00,,,0.00,0,HR-IXP-WINDi_r2_v1.2,2013-02-17 11:35:00,
2013-02-17 03:40:00,46.6,39.7,29.97,West,277,0.0,0.0,77,0.00,,,0.00,0,HR-IXP-WINDi_r2_v1.2,2013-02-17 11:40:00,
2013-02-17 03:45:00,46.3,39.4,29.97,West,277,0.0,0.0,77,0.00,,,0.00,0,HR-IXP-WINDi_r2_v1.2,2013-02-17 11:45:00,
2013-02-17 03:50:00,46.5,39.6,29.97,West,277,0.0,0.0,77,0.00,,,0.00,0,HR-IXP-WINDi_r2_v1.2,2013-02-17 11:50:00,
2013-02-17 03:55:00,46.3,39.4,29.97,West,277,1.0,1.0,77,0.00,,,0.00,0,HR-IXP-WINDi_r2_v1.2,2013-02-17 11:55:00,
2013-02-17 04:01:00,46.3,39.4,29.97,West,277,0.0,1.0,77,0.00,,,0.00,0,HR-IXP-WINDi_r2_v1.2,2013-02-17 12:01:00,
2013-02-17 04:06:00,46.1,39.2,29.97,West,277,0.0,1.0,77,0.00,,,0.00,0,HR-IXP-WINDi_r2_v1.2,2013-02-17 12:06:00,
2013-02-17 04:11:00,45.6,38.8,29.97,West,277,0.0,1.0,77,0.00,,,0.00,0,HR-IXP-WINDi_r2_v1.2,2013-02-17 12:11:00,
2013-02-17 04:16:00,45.6,39.1,29.97,West,277,0.0,1.0,78,0.00,,,0.00,0,HR-IXP-WINDi_r2_v1.2,2013-02-17 12:16:00,
2013-02-17 04:21:00,45.2,38.7,29.97,West,277,0.0,1.0,78,0.00,,,0.00,0,HR-IXP-WINDi_r2_v1.2,2013-02-17 12:21:00,
2013-02-17 04:26:00,45.3,38.8,29.97,West,277,0.0,1.0,78,0.00,,,0.00,0,HR-IXP-WINDi_r2_v1.2,2013-02-17 12:26:00,
2013-02-17 04:32:00,45.7,39.2,29.97,West,277,0.0,0.0,78,0.00,,,0.00,0,HR-IXP-WINDi_r2_v1.2,2013-02-17 12:32:00,
2013-02-17 04:37:00,45.7,38.9,29.97,West,277,0.0,0.0,77,0.00,,,0.00,0,HR-IXP-WINDi_r2_v1.2,2013-02-17 12:37:00,
2013-02-17 04:42:00,45.4,38.6,29.97,West,277,0.0,0.0,77,0.00,,,0.00,0,HR-IXP-WINDi_r2_v1.2,2013-02-17 12:42:00,
2013-02-17 04:47:00,45.4,38.6,29.97,West,277,0.0,0.0,77,0.00,,,0.00,0,HR-IXP-WINDi_r2_v1.2,2013-02-17 12:47:00,
2013-02-17 04:53:00,45.2,38.0,29.97,West,277,0.0,0.0,76,0.00,,,0.00,0,HR-IXP-WINDi_r2_v1.2,2013-02-17 12:53:00,
2013-02-17 04:58:00,45.4,38.6,29.97,West,277,0.0,0.0,77,0.00,,,0.00,0,HR-IXP-WINDi_r2_v1.2,2013-02-17 12:58:00,
2013-02-17 05:03:00,45.4,38.6,29.98,West,277,0.0,0.0,77,0.00,,,0.00,0,HR-IXP-WINDi_r2_v1.2,2013-02-17 13:03:00,
2013-02-17 05:08:00,45.0,38.2,29.98,West,277,1.0,1.0,77,0.00,,,0.00,0,HR-IXP-WINDi_r2_v1.2,2013-02-17 13:08:00,
2013-02-17 05:13:00,45.2,38.0,29.98,West,277,0.0,2.0,76,0.00,,,0.00,0,HR-IXP-WINDi_r2_v1.2,2013-02-17 13:13:00,
2013-02-17 05:18:00,45.3,38.1,29.98,West,277,1.0,2.0,76,0.00,,,0.00,0,HR-IXP-WINDi_r2_v1.2,2013-02-17 13:18:00,
2013-02-17 05:24:00,45.4,38.2,29.98,West,274,0.0,2.0,76,0.00,,,0.00,0,HR-IXP-WINDi_r2_v1.2,2013-02-17 13:24:00,
2013-02-17 05:29:00,46.4,39.9,29.98,SSE,152,2.0,3.0,78,0.00,,,0.00,0,HR-IXP-WINDi_r2_v1.2,2013-02-17 13:29:00,
2013-02-17 05:34:00,47.3,42.0,29.98,SSE,152,0.0,3.0,82,0.00,,,0.00,0,HR-IXP-WINDi_r2_v1.2,2013-02-17 13:34:00,
2013-02-17 05:39:00,48.6,44.5,29.98,SSE,159,3.0,4.0,86,0.00,,,0.00,0,HR-IXP-WINDi_r2_v1.2,2013-02-17 13:39:00,
2013-02-17 05:45:00,49.3,45.5,29.98,SSE,154,1.0,5.0,87,0.00,,,0.00,0,HR-IXP-WINDi_r2_v1.2,2013-02-17 13:45:00,
2013-02-17 05:50:00,49.9,46.7,29.98,SSE,165,1.0,5.0,89,0.00,,,0.00,0,HR-IXP-WINDi_r2_v1.2,2013-02-17 13:50:00,
2013-02-17 05:55:00,50.1,47.2,29.98,SSE,163,2.0,4.0,90,0.00,,,0.00,0,HR-IXP-WINDi_r2_v1.2,2013-02-17 13:55:00,
2013-02-17 06:00:00,50.1,47.5,29.98,SSE,161,1.0,4.0,91,0.00,,,0.00,0,HR-IXP-WINDi_r2_v1.2,2013-02-17 14:00:00,
2013-02-17 06:05:00,50.1,47.5,29.98,SSE,161,0.0,3.0,91,0.00,,,0.00,0,HR-IXP-WINDi_r2_v1.2,2013-02-17 14:05:00,
2013-02-17 06:10:00,50.1,47.8,29.98,SSE,161,1.0,3.0,92,0.00,,,0.00,0,HR-IXP-WINDi_r2_v1.2,2013-02-17 14:10:00,
2013-02-17 06:15:00,50.2,47.9,29.98,SSE,161,0.0,2.0,92,0.00,,,0.00,0,HR-IXP-WINDi_r2_v1.2,2013-02-17 14:15:00,
2013-02-17 06:20:00,50.3,48.3,29.98,SSE,161,1.0,3.0,93,0.00,,,0.00,0,HR-IXP-WINDi_r2_v1.2,2013-02-17 14:20:00,
2013-02-17 06:26:00,50.2,48.2,29.99,SSE,161,0.0,3.0,93,0.00,,,0.00,0,HR-IXP-WINDi_r2_v1.2,2013-02-17 14:26:00,
2013-02-17 06:31:00,50.3,48.6,29.99,SSE,161,0.0,3.0,94,0.00,,,0.00,0,HR-IXP-WINDi_r2_v1.2,2013-02-17 14:31:00,
2013-02-17 06:36:00,50.2,48.5,29.99,SSE,161,1.0,2.0,94,0.00,,,0.00,0,HR-IXP-WINDi_r2_v1.2,2013-02-17 14:36:00,
2013-02-17 06:41:00,50.4,48.7,29.99,SSE,161,0.0,2.0,94,0.00,,,0.00,5,HR-IXP-WINDi_r2_v1.2,2013-02-17 14:41:00,
2013-02-17 06:47:00,50.4,48.7,29.99,SSE,161,0.0,1.0,94,0.00,,,0.00,7,HR-IXP-WINDi_r2_v1.2,2013-02-17 14:47:00,
2013-02-17 06:52:00,50.4,48.7,29.99,SSE,161,1.0,1.0,94,0.00,,,0.00,12,HR-IXP-WINDi_r2_v1.2,2013-02-17 14:52:00,
2013-02-17 06:57:00,50.4,49.0,29.99,SSE,161,1.0,2.0,95,0.00,,,0.00,18,HR-IXP-WINDi_r2_v1.2,2013-02-17 14:57:00,
2013-02-17 07:02:00,50.5,49.1,29.99,SSE,161,0.0,2.0,95,0.00,,,0.00,19,HR-IXP-WINDi_r2_v1.2,2013-02-17 15:02:00,
2013-02-17 07:07:00,50.6,49.2,30.00,SSE,161,0.0,2.0,95,0.00,,,0.00,39,HR-IXP-WINDi_r2_v1.2,2013-02-17 15:07:00,
2013-02-17 07:12:00,50.7,49.3,30.00,SSE,161,0.0,2.0,95,0.00,,,0.00,32,HR-IXP-WINDi_r2_v1.2,2013-02-17 15:12:00,
2013-02-17 07:17:00,50.7,49.3,30.00,SSE,161,1.0,2.0,95,0.00,,,0.00,44,HR-IXP-WINDi_r2_v1.2,2013-02-17 15:17:00,
2013-02-17 07:22:00,50.8,49.4,30.00,SSE,161,0.0,2.0,95,0.00,,,0.00,54,HR-IXP-WINDi_r2_v1.2,2013-02-17 15:22:00,
2013-02-17 07:28:00,50.9,49.5,30.00,SSE,161,1.0,2.0,95,0.00,,,0.00,44,HR-IXP-WINDi_r2_v1.2,2013-02-17 15:28:00,
2013-02-17 07:33:00,50.8,49.4,30.00,SSE,159,1.0,3.0,95,0.00,,,0.00,62,HR-IXP-WINDi_r2_v1.2,2013-02-17 15:33:00,
2013-02-17 07:38:00,50.7,49.3,30.00,SSE,159,1.0,3.0,95,0.00,,,0.00,67,HR-IXP-WINDi_r2_v1.2,2013-02-17 15:38:00,
2013-02-17 07:43:00,50.8,49.6,30.00,SSE,159,0.0,3.0,96,0.00,,,0.00,137,HR-IXP-WINDi_r2_v1.2,2013-02-17 15:43:00,
2013-02-17 07:48:00,51.3,50.1,30.00,SSE,159,0.0,2.0,96,0.00,,,0.00,149,HR-IXP-WINDi_r2_v1.2,2013-02-17 15:48:00,
2013-02-17 07:54:00,51.9,50.7,30.01,SSE,159,1.0,2.0,96,0.00,,,0.00,155,HR-IXP-WINDi_r2_v1.2,2013-02-17 15:54:00,
2013-02-17 07:59:00,51.5,50.0,30.01,SSE,159,0.0,1.0,95,0.00,,,0.00,130,HR-IXP-WINDi_r2_v1.2,2013-02-17 15:59:00,
2013-02-17 08:04:00,52.1,50.9,30.01,SSE,159,2.0,2.0,96,0.00,,,0.00,158,HR-IXP-WINDi_r2_v1.2,2013-02-17 16:04:00,
2013-02-17 08:09:00,52.2,51.0,30.01,SE,146,0.0,4.0,96,0.00,,,0.00,223,HR-IXP-WINDi_r2_v1.2,2013-02-17 16:09:00,
2013-02-17 08:14:00,51.9,50.4,30.01,ENE,68,1.0,4.0,95,0.00,,,0.00,167,HR-IXP-WINDi_r2_v1.2,2013-02-17 16:14:00,
2013-02-17 08:20:00,53.0,51.8,30.01,ENE,69,2.0,3.0,96,0.00,,,0.00,250,HR-IXP-WINDi_r2_v1.2,2013-02-17 16:20:00,
2013-02-17 08:25:00,54.0,52.8,30.01,ENE,69,1.0,3.0,96,0.00,,,0.00,248,HR-IXP-WINDi_r2_v1.2,2013-02-17 16:25:00,
2013-02-17 08:30:00,53.3,51.3,30.02,East,83,0.0,3.0,93,0.00,,,0.00,264,HR-IXP-WINDi_r2_v1.2,2013-02-17 16:30:00,
2013-02-17 08:35:00,53.7,51.9,30.02,East,83,0.0,2.0,94,0.00,,,0.00,269,HR-IXP-WINDi_r2_v1.2,2013-02-17 16:35:00,
2013-02-17 08:40:00,54.3,52.0,30.02,East,83,1.0,2.0,92,0.00,,,0.00,278,HR-IXP-WINDi_r2_v1.2,2013-02-17 16:40:00,
2013-02-17 08:46:00,55.6,53.2,30.02,East,88,1.0,2.0,92,0.00,,,0.00,285,HR-IXP-WINDi_r2_v1.2,2013-02-17 16:46:00,
2013-02-17 08:51:00,56.0,52.7,30.02,ESE,119,0.0,3.0,89,0.00,,,0.00,287,HR-IXP-WINDi_r2_v1.2,2013-02-17 16:51:00,
2013-02-17 08:56:00,56.4,52.5,30.02,SSE,167,1.0,4.0,87,0.00,,,0.00,283,HR-IXP-WINDi_r2_v1.2,2013-02-17 16:56:00,
2013-02-17 09:01:00,56.8,52.9,30.02,SSE,155,4.0,4.0,87,0.00,,,0.00,271,HR-IXP-WINDi_r2_v1.2,2013-02-17 17:01:00,
2013-02-17 09:07:00,57.0,52.5,30.02,SSW,207,3.0,5.0,85,0.00,,,0.00,232,HR-IXP-WINDi_r2_v1.2,2013-02-17 17:07:00,
2013-02-17 09:12:00,56.8,52.0,30.02,SSE,153,2.0,7.0,84,0.00,,,0.00,236,HR-IXP-WINDi_r2_v1.2,2013-02-17 17:12:00,
2013-02-17 09:17:00,58.1,52.9,30.02,SE,136,2.0,7.0,83,0.00,,,0.00,225,HR-IXP-WINDi_r2_v1.2,2013-02-17 17:17:00,
2013-02-17 09:22:00,58.3,52.8,30.02,SE,135,3.0,5.0,82,0.00,,,0.00,218,HR-IXP-WINDi_r2_v1.2,2013-02-17 17:22:00,
2013-02-17 09:27:00,59.7,53.1,30.02,South,171,1.0,7.0,79,0.00,,,0.00,269,HR-IXP-WINDi_r2_v1.2,2013-02-17 17:27:00,
2013-02-17 09:33:00,60.1,52.8,30.02,SSE,147,4.0,7.0,77,0.00,,,0.00,322,HR-IXP-WINDi_r2_v1.2,2013-02-17 17:33:00,
2013-02-17 09:38:00,58.9,51.6,30.02,SSW,200,3.0,7.0,77,0.00,,,0.00,359,HR-IXP-WINDi_r2_v1.2,2013-02-17 17:38:00,
2013-02-17 09:43:00,60.2,52.5,30.02,SSE,165,3.0,8.0,76,0.00,,,0.00,406,HR-IXP-WINDi_r2_v1.2,2013-02-17 17:43:00,
2013-02-17 09:48:00,59.9,52.3,30.02,SSW,194,4.0,8.0,76,0.00,,,0.00,478,HR-IXP-WINDi_r2_v1.2,2013-02-17 17:48:00,
2013-02-17 09:53:00,60.1,52.8,30.02,SSE,161,2.0,6.0,77,0.00,,,0.00,512,HR-IXP-WINDi_r2_v1.2,2013-02-17 17:53:00,
2013-02-17 09:59:00,60.5,52.5,30.02,SSE,157,3.0,6.0,75,0.00,,,0.00,527,HR-IXP-WINDi_r2_v1.2,2013-02-17 17:59:00,
2013-02-17 10:04:00,60.7,52.3,30.02,SSW,199,3.0,5.0,74,0.00,,,0.00,543,HR-IXP-WINDi_r2_v1.2,2013-02-17 18:04:00,
2013-02-17 10:09:00,60.5,52.1,30.02,South,188,4.0,6.0,74,0.00,,,0.00,543,HR-IXP-WINDi_r2_v1.2,2013-02-17 18:09:00,
2013-02-17 10:14:00,62.1,53.3,30.02,ESE,117,1.0,6.0,73,0.00,,,0.00,561,HR-IXP-WINDi_r2_v1.2,2013-02-17 18:14:00,
2013-02-17 10:20:00,64.4,53.9,30.02,ESE,116,2.0,6.0,69,0.00,,,0.00,552,HR-IXP-WINDi_r2_v1.2,2013-02-17 18:20:00,
2013-02-17 10:25:00,63.1,52.3,30.01,SSW,204,3.0,5.0,68,0.00,,,0.00,512,HR-IXP-WINDi_r2_v1.2,2013-02-17 18:25:00,
2013-02-17 10:30:00,64.5,52.4,30.01,SSE,151,2.0,5.0,65,0.00,,,0.00,480,HR-IXP-WINDi_r2_v1.2,2013-02-17 18:30:00,
2013-02-17 10:35:00,64.2,51.3,30.01,SSE,153,4.0,7.0,63,0.00,,,0.00,485,HR-IXP-WINDi_r2_v1.2,2013-02-17 18:35:00,
2013-02-17 10:40:00,65.4,52.0,30.01,SSE,167,3.0,7.0,62,0.00,,,0.00,533,HR-IXP-WINDi_r2_v1.2,2013-02-17 18:40:00,
2013-02-17 10:45:00,65.2,52.7,30.01,ESE,123,2.0,6.0,64,0.00,,,0.00,589,HR-IXP-WINDi_r2_v1.2,2013-02-17 18:45:00,
2013-02-17 10:51:00,66.3,52.4,30.01,SE,135,1.0,6.0,61,0.00,,,0.00,626,HR-IXP-WINDi_r2_v1.2,2013-02-17 18:51:00,
2013-02-17 10:56:00,65.4,51.1,30.01,South,171,2.0,6.0,60,0.00,,,0.00,628,HR-IXP-WINDi_r2_v1.2,2013-02-17 18:56:00,
2013-02-17 11:01:00,65.9,50.7,30.01,SSE,151,1.0,7.0,58,0.00,,,0.00,635,HR-IXP-WINDi_r2_v1.2,2013-02-17 19:01:00,
2013-02-17 11:06:00,66.6,51.3,30.01,SE,144,4.0,9.0,58,0.00,,,0.00,645,HR-IXP-WINDi_r2_v1.2,2013-02-17 19:06:00,
2013-02-17 11:11:00,67.1,52.2,30.00,SE,146,3.0,9.0,59,0.00,,,0.00,656,HR-IXP-WINDi_r2_v1.2,2013-02-17 19:11:00,
2013-02-17 11:16:00,66.2,50.5,30.00,South,171,3.0,10.0,57,0.00,,,0.00,657,HR-IXP-WINDi_r2_v1.2,2013-02-17 19:16:00,
2013-02-17 11:22:00,66.8,51.0,30.00,SSE,149,5.0,10.0,57,0.00,,,0.00,659,HR-IXP-WINDi_r2_v1.2,2013-02-17 19:22:00,
2013-02-17 11:27:00,67.7,50.9,30.00,SE,126,8.0,9.0,55,0.00,,,0.00,664,HR-IXP-WINDi_r2_v1.2,2013-02-17 19:27:00,
2013-02-17 11:32:00,67.9,51.1,29.99,SSE,167,4.0,10.0,55,0.00,,,0.00,670,HR-IXP-WINDi_r2_v1.2,2013-02-17 19:32:00,
2013-02-17 11:37:00,69.0,49.5,29.99,SE,124,2.0,10.0,50,0.00,,,0.00,671,HR-IXP-WINDi_r2_v1.2,2013-02-17 19:37:00,
2013-02-17 11:42:00,69.0,50.1,29.99,SE,144,6.0,10.0,51,0.00,,,0.00,675,HR-IXP-WINDi_r2_v1.2,2013-02-17 19:42:00,
2013-02-17 11:48:00,67.9,48.0,29.99,SE,146,6.0,10.0,49,0.00,,,0.00,679,HR-IXP-WINDi_r2_v1.2,2013-02-17 19:48:00,
2013-02-17 11:53:00,66.7,50.0,29.99,SW,229,2.0,9.0,55,0.00,,,0.00,673,HR-IXP-WINDi_r2_v1.2,2013-02-17 19:53:00,
2013-02-17 11:58:00,66.1,51.3,29.99,SE,136,3.0,9.0,59,0.00,,,0.00,677,HR-IXP-WINDi_r2_v1.2,2013-02-17 19:58:00,
2013-02-17 12:03:00,67.7,50.4,29.99,SSE,157,3.0,8.0,54,0.00,,,0.00,682,HR-IXP-WINDi_r2_v1.2,2013-02-17 20:03:00,
2013-02-17 12:09:00,65.4,51.1,29.98,SSW,207,3.0,9.0,60,0.00,,,0.00,680,HR-IXP-WINDi_r2_v1.2,2013-02-17 20:09:00,
2013-02-17 12:14:00,64.7,51.3,29.98,SSE,155,4.0,10.0,62,0.00,,,0.00,680,HR-IXP-WINDi_r2_v1.2,2013-02-17 20:14:00,
2013-02-17 12:19:00,64.1,50.8,29.98,SW,214,2.0,11.0,62,0.00,,,0.00,673,HR-IXP-WINDi_r2_v1.2,2013-02-17 20:19:00,
2013-02-17 12:24:00,64.6,52.9,29.98,South,174,6.0,11.0,66,0.00,,,0.00,679,HR-IXP-WINDi_r2_v1.2,2013-02-17 20:24:00,
2013-02-17 12:30:00,64.6,52.5,29.98,SSW,202,4.0,10.0,65,0.00,,,0.00,675,HR-IXP-WINDi_r2_v1.2,2013-02-17 20:30:00,
2013-02-17 12:35:00,64.7,51.3,29.98,South,175,4.0,10.0,62,0.00,,,0.00,675,HR-IXP-WINDi_r2_v1.2,2013-02-17 20:35:00,
2013-02-17 12:40:00,64.5,52.0,29.97,SSW,210,3.0,11.0,64,0.00,,,0.00,671,HR-IXP-WINDi_r2_v1.2,2013-02-17 20:40:00,
2013-02-17 12:45:00,64.8,51.9,29.97,South,175,9.0,11.0,63,0.00,,,0.00,666,HR-IXP-WINDi_r2_v1.2,2013-02-17 20:45:00,
2013-02-17 12:50:00,64.5,52.4,29.97,SW,216,5.0,11.0,65,0.00,,,0.00,664,HR-IXP-WINDi_r2_v1.2,2013-02-17 20:50:00,
2013-02-17 12:55:00,63.8,52.2,29.97,SSW,204,3.0,11.0,66,0.00,,,0.00,659,HR-IXP-WINDi_r2_v1.2,2013-02-17 20:55:00,
2013-02-17 13:01:00,64.1,52.5,29.97,South,182,2.0,11.0,66,0.00,,,0.00,656,HR-IXP-WINDi_r2_v1.2,2013-02-17 21:01:00,
2013-02-17 13:06:00,63.5,51.9,29.97,SW,232,4.0,9.0,66,0.00,,,0.00,652,HR-IXP-WINDi_r2_v1.2,2013-02-17 21:06:00,
2013-02-17 13:11:00,63.6,52.4,29.97,SSW,209,5.0,9.0,67,0.00,,,0.00,642,HR-IXP-WINDi_r2_v1.2,2013-02-17 21:11:00,
2013-02-17 13:16:00,65.0,53.3,29.96,SSE,168,3.0,9.0,66,0.00,,,0.00,640,HR-IXP-WINDi_r2_v1.2,2013-02-17 21:16:00,
2013-02-17 13:22:00,63.5,50.6,29.96,SW,221,5.0,11.0,63,0.00,,,0.00,638,HR-IXP-WINDi_r2_v1.2,2013-02-17 21:22:00,
2013-02-17 13:27:00,64.1,51.2,29.96,SSE,154,7.0,11.0,63,0.00,,,0.00,629,HR-IXP-WINDi_r2_v1.2,2013-02-17 21:27:00,
2013-02-17 13:32:00,65.1,51.7,29.96,SSE,153,4.0,10.0,62,0.00,,,0.00,619,HR-IXP-WINDi_r2_v1.2,2013-02-17 21:32:00,
2013-02-17 13:37:00,65.7,52.3,29.95,South,169,6.0,9.0,62,0.00,,,0.00,612,HR-IXP-WINDi_r2_v1.2,2013-02-17 21:37:00,
2013-02-17 13:42:00,65.5,51.6,29.95,SSE,157,6.0,9.0,61,0.00,,,0.00,605,HR-IXP-WINDi_r2_v1.2,2013-02-17 21:42:00,
2013-02-17 13:48:00,64.2,50.4,29.95,SSW,210,4.0,10.0,61,0.00,,,0.00,598,HR-IXP-WINDi_r2_v1.2,2013-02-17 21:48:00,
2013-02-17 13:53:00,63.6,50.3,29.95,SSW,210,5.0,10.0,62,0.00,,,0.00,589,HR-IXP-WINDi_r2_v1.2,2013-02-17 21:53:00,
2013-02-17 13:58:00,64.9,50.6,29.95,SSE,159,2.0,10.0,60,0.00,,,0.00,577,HR-IXP-WINDi_r2_v1.2,2013-02-17 21:58:00,
2013-02-17 14:03:00,65.6,51.7,29.95,SSW,195,2.0,10.0,61,0.00,,,0.00,564,HR-IXP-WINDi_r2_v1.2,2013-02-17 22:03:00,
2013-02-17 14:08:00,65.7,52.3,29.96,SSE,155,2.0,10.0,62,0.00,,,0.00,557,HR-IXP-WINDi_r2_v1.2,2013-02-17 22:08:00,
2013-02-17 14:13:00,64.5,50.7,29.96,South,178,4.0,10.0,61,0.00,,,0.00,547,HR-IXP-WINDi_r2_v1.2,2013-02-17 22:13:00,
2013-02-17 14:18:00,64.8,51.4,29.96,SSE,150,5.0,9.0,62,0.00,,,0.00,538,HR-IXP-WINDi_r2_v1.2,2013-02-17 22:18:00,
2013-02-17 14:24:00,65.2,50.9,29.96,SSE,154,6.0,8.0,60,0.00,,,0.00,520,HR-IXP-WINDi_r2_v1.2,2013-02-17 22:24:00,
2013-02-17 14:29:00,65.7,51.4,29.96,SSE,163,2.0,10.0,60,0.00,,,0.00,517,HR-IXP-WINDi_r2_v1.2,2013-02-17 22:29:00,
2013-02-17 14:34:00,64.4,50.6,29.96,SW,224,6.0,10.0,61,0.00,,,0.00,501,HR-IXP-WINDi_r2_v1.2,2013-02-17 22:34:00,
2013-02-17 14:39:00,63.6,50.7,29.96,SSE,159,4.0,9.0,63,0.00,,,0.00,487,HR-IXP-WINDi_r2_v1.2,2013-02-17 22:39:00,
2013-02-17 14:44:00,64.7,50.4,29.96,South,177,3.0,9.0,60,0.00,,,0.00,471,HR-IXP-WINDi_r2_v1.2,2013-02-17 22:44:00,
2013-02-17 14:50:00,63.9,51.4,29.96,SSE,152,8.0,11.0,64,0.00,,,0.00,445,HR-IXP-WINDi_r2_v1.2,2013-02-17 22:50:00,
2013-02-17 14:55:00,64.8,51.9,29.96,South,178,3.0,11.0,63,0.00,,,0.00,406,HR-IXP-WINDi_r2_v1.2,2013-02-17 22:55:00,
2013-02-17 15:00:00,63.9,51.0,29.96,SSW,198,9.0,10.0,63,0.00,,,0.00,380,HR-IXP-WINDi_r2_v1.2,2013-02-17 23:00:00,
2013-02-17 15:05:00,63.5,51.9,29.96,SE,143,4.0,10.0,66,0.00,,,0.00,308,HR-IXP-WINDi_r2_v1.2,2013-02-17 23:05:00,
2013-02-17 15:10:00,64.2,52.5,29.96,SSE,154,4.0,9.0,66,0.00,,,0.00,207,HR-IXP-WINDi_r2_v1.2,2013-02-17 23:10:00,
2013-02-17 15:16:00,63.3,51.3,29.97,SE,137,5.0,11.0,65,0.00,,,0.00,211,HR-IXP-WINDi_r2_v1.2,2013-02-17 23:16:00,
2013-02-17 15:21:00,63.6,52.0,29.97,SSE,148,2.0,11.0,66,0.00,,,0.00,246,HR-IXP-WINDi_r2_v1.2,2013-02-17 23:21:00,
2013-02-17 15:26:00,64.1,52.9,29.97,SSE,167,5.0,9.0,67,0.00,,,0.00,264,HR-IXP-WINDi_r2_v1.2,2013-02-17 23:26:00,
2013-02-17 15:31:00,64.5,52.4,29.97,SSW,207,7.0,11.0,65,0.00,,,0.00,265,HR-IXP-WINDi_r2_v1.2,2013-02-17 23:31:00,
2013-02-17 15:36:00,63.4,51.8,29.97,SSE,159,2.0,11.0,66,0.00,,,0.00,234,HR-IXP-WINDi_r2_v1.2,2013-02-17 23:36:00,
2013-02-17 15:42:00,63.2,52.4,29.97,SSE,162,5.0,10.0,68,0.00,,,0.00,276,HR-IXP-WINDi_r2_v1.2,2013-02-17 23:42:00,
2013-02-17 15:47:00,62.5,50.9,29.97,SW,232,9.0,10.0,66,0.00,,,0.00,264,HR-IXP-WINDi_r2_v1.2,2013-02-17 23:47:00,
2013-02-17 15:52:00,61.5,51.2,29.97,WSW,237,5.0,10.0,69,0.00,,,0.00,260,HR-IXP-WINDi_r2_v1.2,2013-02-17 23:52:00,
2013-02-17 15:57:00,61.6,51.3,29.97,SSE,155,7.0,10.0,69,0.00,,,0.00,251,HR-IXP-WINDi_r2_v1.2,2013-02-17 23:57:00,
2013-02-17 16:02:00,61.6,51.7,29.97,SSW,209,7.0,9.0,70,0.00,,,0.00,239,HR-IXP-WINDi_r2_v1.2,2013-02-18 00:02:00,
2013-02-17 16:07:00,61.6,52.0,29.97,SSE,167,2.0,9.0,71,0.00,,,0.00,229,HR-IXP-WINDi_r2_v1.2,2013-02-18 00:07:00,
2013-02-17 16:13:00,62.0,52.0,29.97,SSE,162,4.0,9.0,70,0.00,,,0.00,211,HR-IXP-WINDi_r2_v1.2,2013-02-18 00:13:00,
2013-02-17 16:18:00,61.6,51.7,29.97,SSE,150,1.0,8.0,70,0.00,,,0.00,195,HR-IXP-WINDi_r2_v1.2,2013-02-18 00:18:00,
2013-02-17 16:23:00,61.2,51.3,29.97,SSE,158,3.0,8.0,70,0.00,,,0.00,176,HR-IXP-WINDi_r2_v1.2,2013-02-18 00:23:00,
2013-02-17 16:28:00,60.9,51.4,29.97,SE,146,5.0,9.0,71,0.00,,,0.00,162,HR-IXP-WINDi_r2_v1.2,2013-02-18 00:28:00,
2013-02-17 16:33:00,60.7,51.6,29.97,SSE,163,2.0,9.0,72,0.00,,,0.00,148,HR-IXP-WINDi_r2_v1.2,2013-02-18 00:33:00,
2013-02-17 16:38:00,60.1,51.0,29.97,SSE,162,3.0,8.0,72,0.00,,,0.00,93,HR-IXP-WINDi_r2_v1.2,2013-02-18 00:38:00,
2013-02-17 16:43:00,59.6,51.2,29.98,SSE,155,4.0,8.0,74,0.00,,,0.00,116,HR-IXP-WINDi_r2_v1.2,2013-02-18 00:43:00,
2013-02-17 16:49:00,59.4,51.4,29.97,South,188,2.0,8.0,75,0.00,,,0.00,86,HR-IXP-WINDi_r2_v1.2,2013-02-18 00:49:00,
2013-02-17 16:54:00,59.4,51.4,29.98,SE,145,2.0,7.0,75,0.00,,,0.00,65,HR-IXP-WINDi_r2_v1.2,2013-02-18 00:54:00,
2013-02-17 16:59:00,59.2,51.2,29.98,SSE,153,5.0,7.0,75,0.00,,,0.00,39,HR-IXP-WINDi_r2_v1.2,2013-02-18 00:59:00,
2013-02-17 17:04:00,58.8,51.2,29.98,SSW,193,4.0,7.0,76,0.00,,,0.00,40,HR-IXP-WINDi_r2_v1.2,2013-02-18 01:04:00,
2013-02-17 17:09:00,58.7,51.1,29.98,ESE,122,2.0,7.0,76,0.00,,,0.00,33,HR-IXP-WINDi_r2_v1.2,2013-02-18 01:09:00,
2013-02-17 17:15:00,58.3,50.7,29.98,SW,222,7.0,7.0,76,0.00,,,0.00,32,HR-IXP-WINDi_r2_v1.2,2013-02-18 01:15:00,
2013-02-17 17:20:00,58.0,50.8,29.98,SSW,192,3.0,8.0,77,0.00,,,0.00,25,HR-IXP-WINDi_r2_v1.2,2013-02-18 01:20:00,
2013-02-17 17:25:00,57.6,50.7,29.98,South,180,2.0,8.0,78,0.00,,,0.00,16,HR-IXP-WINDi_r2_v1.2,2013-02-18 01:25:00,
2013-02-17 17:30:00,57.3,50.8,29.98,SSW,203,3.0,8.0,79,0.00,,,0.00,11,HR-IXP-WINDi_r2_v1.2,2013-02-18 01:30:00,
2013-02-17 17:35:00,57.2,50.7,29.98,SE,140,2.0,6.0,79,0.00,,,0.00,5,HR-IXP-WINDi_r2_v1.2,2013-02-18 01:35:00,
2013-02-17 17:41:00,56.8,50.3,29.98,SSE,155,6.0,8.0,79,0.00,,,0.00,0,HR-IXP-WINDi_r2_v1.2,2013-02-18 01:41:00,
2013-02-17 17:46:00,56.5,50.3,29.98,SE,133,5.0,8.0,80,0.00,,,0.00,0,HR-IXP-WINDi_r2_v1.2,2013-02-18 01:46:00,
2013-02-17 17:51:00,56.3,50.5,29.98,SE,134,2.0,7.0,81,0.00,,,0.00,0,HR-IXP-WINDi_r2_v1.2,2013-02-18 01:51:00,
2013-02-17 17:56:00,56.1,50.3,29.99,South,178,3.0,6.0,81,0.00,,,0.00,0,HR-IXP-WINDi_r2_v1.2,2013-02-18 01:56:00,
2013-02-17 18:01:00,56.0,50.5,29.99,South,188,3.0,6.0,82,0.00,,,0.00,0,HR-IXP-WINDi_r2_v1.2,2013-02-18 02:01:00,
2013-02-17 18:07:00,55.9,50.7,29.99,SSE,157,1.0,6.0,83,0.00,,,0.00,0,HR-IXP-WINDi_r2_v1.2,2013-02-18 02:07:00,
2013-02-17 18:12:00,55.7,50.6,29.99,SSE,156,2.0,5.0,83,0.00,,,0.00,0,HR-IXP-WINDi_r2_v1.2,2013-02-18 02:12:00,
2013-02-17 18:17:00,55.6,50.5,29.99,SSE,163,2.0,5.0,83,0.00,,,0.00,0,HR-IXP-WINDi_r2_v1.2,2013-02-18 02:17:00,
2013-02-17 18:22:00,55.5,50.4,29.99,SSE,163,3.0,7.0,83,0.00,,,0.00,0,HR-IXP-WINDi_r2_v1.2,2013-02-18 02:22:00,
2013-02-17 18:27:00,55.3,50.5,30.00,SE,130,3.0,7.0,84,0.00,,,0.00,0,HR-IXP-WINDi_r2_v1.2,2013-02-18 02:27:00,
2013-02-17 18:33:00,55.2,50.4,29.99,SE,139,1.0,7.0,84,0.00,,,0.00,0,HR-IXP-WINDi_r2_v1.2,2013-02-18 02:33:00,
2013-02-17 18:38:00,55.1,50.3,30.00,SSE,163,2.0,7.0,84,0.00,,,0.00,0,HR-IXP-WINDi_r2_v1.2,2013-02-18 02:38:00,
2013-02-17 18:43:00,55.0,50.5,29.99,SSE,153,4.0,6.0,85,0.00,,,0.00,0,HR-IXP-WINDi_r2_v1.2,2013-02-18 02:43:00,
2013-02-17 18:48:00,54.9,50.4,29.99,SSE,165,5.0,6.0,85,0.00,,,0.00,0,HR-IXP-WINDi_r2_v1.2,2013-02-18 02:48:00,
2013-02-17 18:53:00,54.9,50.4,30.00,SE,136,2.0,6.0,85,0.00,,,0.00,0,HR-IXP-WINDi_r2_v1.2,2013-02-18 02:53:00,
2013-02-17 18:59:00,54.7,50.2,30.00,SSE,165,4.0,5.0,85,0.00,,,0.00,0,HR-IXP-WINDi_r2_v1.2,2013-02-18 02:59:00,
2013-02-17 19:04:00,54.7,50.2,30.00,SSE,159,2.0,5.0,85,0.00,,,0.00,0,HR-IXP-WINDi_r2_v1.2,2013-02-18 03:04:00,
2013-02-17 19:09:00,54.6,50.1,30.00,SSE,153,0.0,5.0,85,0.00,,,0.00,0,HR-IXP-WINDi_r2_v1.2,2013-02-18 03:09:00,
2013-02-17 19:14:00,54.5,50.0,30.00,SE,145,3.0,5.0,85,0.00,,,0.00,0,HR-IXP-WINDi_r2_v1.2,2013-02-18 03:14:00,
2013-02-17 19:19:00,54.4,49.9,30.00,SSE,158,1.0,6.0,85,0.00,,,0.00,0,HR-IXP-WINDi_r2_v1.2,2013-02-18 03:19:00,
2013-02-17 19:25:00,54.3,49.8,30.00,SE,134,2.0,6.0,85,0.00,,,0.00,0,HR-IXP-WINDi_r2_v1.2,2013-02-18 03:25:00,
2013-02-17 19:30:00,54.2,49.7,30.00,SE,130,0.0,4.0,85,0.00,,,0.00,0,HR-IXP-WINDi_r2_v1.2,2013-02-18 03:30:00,
2013-02-17 19:35:00,54.3,50.1,30.01,SSE,152,0.0,4.0,86,0.00,,,0.00,0,HR-IXP-WINDi_r2_v1.2,2013-02-18 03:35:00,
2013-02-17 19:40:00,54.4,50.2,30.01,SSE,158,1.0,4.0,86,0.00,,,0.00,0,HR-IXP-WINDi_r2_v1.2,2013-02-18 03:40:00,
2013-02-17 19:45:00,54.3,50.1,30.01,South,169,1.0,5.0,86,0.00,,,0.00,0,HR-IXP-WINDi_r2_v1.2,2013-02-18 03:45:00,
2013-02-17 19:50:00,54.3,50.1,30.01,South,173,0.0,5.0,86,0.00,,,0.00,0,HR-IXP-WINDi_r2_v1.2,2013-02-18 03:50:00,
2013-02-17 19:56:00,54.1,49.6,30.01,SSE,167,1.0,4.0,85,0.00,,,0.00,0,HR-IXP-WINDi_r2_v1.2,2013-02-18 03:56:00,
2013-02-17 20:01:00,54.0,49.8,30.01,SSE,148,0.0,4.0,86,0.00,,,0.00,0,HR-IXP-WINDi_r2_v1.2,2013-02-18 04:01:00,
2013-02-17 20:06:00,53.9,49.7,30.02,SE,140,0.0,4.0,86,0.00,,,0.00,0,HR-IXP-WINDi_r2_v1.2,2013-02-18 04:06:00,
2013-02-17 20:11:00,53.8,49.6,30.02,SE,140,0.0,4.0,86,0.00,,,0.00,0,HR-IXP-WINDi_r2_v1.2,2013-02-18 04:11:00,
2013-02-17 20:17:00,53.7,49.5,30.02,SE,140,1.0,3.0,86,0.00,,,0.00,0,HR-IXP-WINDi_r2_v1.2,2013-02-18 04:17:00,
2013-02-17 20:22:00,53.7,49.5,30.02,SE,140,2.0,3.0,86,0.00,,,0.00,0,HR-IXP-WINDi_r2_v1.2,2013-02-18 04:22:00,
2013-02-17 20:27:00,53.6,49.5,30.02,SSE,150,1.0,3.0,86,0.00,,,0.00,0,HR-IXP-WINDi_r2_v1.2,2013-02-18 04:27:00,
2013-02-17 20:32:00,53.7,49.5,30.02,SE,146,1.0,3.0,86,0.00,,,0.00,0,HR-IXP-WINDi_r2_v1.2,2013-02-18 04:32:00,
2013-02-17 20:37:00,53.6,49.8,30.03,SE,136,1.0,4.0,87,0.00,,,0.00,0,HR-IXP-WINDi_r2_v1.2,2013-02-18 04:37:00,
2013-02-17 20:43:00,53.6,49.8,30.03,SE,134,0.0,4.0,87,0.00,,,0.00,0,HR-IXP-WINDi_r2_v1.2,2013-02-18 04:43:00,
2013-02-17 20:48:00,53.8,50.0,30.03,SE,140,1.0,4.0,87,0.00,,,0.00,0,HR-IXP-WINDi_r2_v1.2,2013-02-18 04:48:00,
2013-02-17 20:53:00,54.0,50.2,30.03,SE,131,3.0,5.0,87,0.00,,,0.00,0,HR-IXP-WINDi_r2_v1.2,2013-02-18 04:53:00,
2013-02-17 20:58:00,54.2,50.4,30.04,SE,131,1.0,5.0,87,0.00,,,0.00,0,HR-IXP-WINDi_r2_v1.2,2013-02-18 04:58:00,
2013-02-17 21:00:00,54.2,50.0,30.04,SE,132,0.0,5.0,86,0.00,,,0.00,0,HR-IXP-WINDi_r2_v1.2,2013-02-18 05:00:00,
2013-02-17 21:05:00,54.3,50.1,30.04,ESE,117,3.0,3.0,86,0.00,,,0.00,0,HR-IXP-WINDi_r2_v1.2,2013-02-18 05:05:00,
2013-02-17 21:10:00,54.4,50.2,30.04,SSE,152,2.0,4.0,86,0.00,,,0.00,0,HR-IXP-WINDi_r2_v1.2,2013-02-18 05:10:00,
2013-02-17 21:15:00,54.5,50.3,30.04,SSE,148,2.0,5.0,86,0.00,,,0.00,0,HR-IXP-WINDi_r2_v1.2,2013-02-18 05:15:00,
2013-02-17 21:20:00,54.5,50.3,30.04,SSE,159,2.0,6.0,86,0.00,,,0.00,0,HR-IXP-WINDi_r2_v1.2,2013-02-18 05:20:00,
2013-02-17 21:26:00,54.5,50.0,30.05,SE,131,4.0,6.0,85,0.00,,,0.00,0,HR-IXP-WINDi_r2_v1.2,2013-02-18 05:26:00,
2013-02-17 21:31:00,54.6,50.1,30.05,SE,136,1.0,5.0,85,0.00,,,0.00,0,HR-IXP-WINDi_r2_v1.2,2013-02-18 05:31:00,
2013-02-17 21:36:00,54.6,50.1,30.05,SE,129,2.0,5.0,85,0.00,,,0.00,0,HR-IXP-WINDi_r2_v1.2,2013-02-18 05:36:00,
2013-02-17 21:41:00,54.7,50.2,30.05,SE,129,1.0,3.0,85,0.00,,,0.00,0,HR-IXP-WINDi_r2_v1.2,2013-02-18 05:41:00,
2013-02-17 21:46:00,54.7,50.2,30.05,SE,125,2.0,3.0,85,0.00,,,0.00,0,HR-IXP-WINDi_r2_v1.2,2013-02-18 05:46:00,
2013-02-17 21:52:00,54.5,50.0,30.05,ESE,119,0.0,3.0,85,0.00,,,0.00,0,HR-IXP-WINDi_r2_v1.2,2013-02-18 05:52:00,
2013-02-17 21:57:00,54.4,49.9,30.05,ESE,118,1.0,3.0,85,0.00,,,0.00,0,HR-IXP-WINDi_r2_v1.2,2013-02-18 05:57:00,
2013-02-17 22:02:00,54.4,50.2,30.05,ESE,118,1.0,3.0,86,0.00,,,0.00,0,HR-IXP-WINDi_r2_v1.2,2013-02-18 06:02:00,
2013-02-17 22:07:00,54.4,50.2,30.05,ENE,76,2.0,5.0,86,0.00,,,0.00,0,HR-IXP-WINDi_r2_v1.2,2013-02-18 06:07:00,
2013-02-17 22:12:00,54.4,50.2,30.05,ESE,103,1.0,5.0,86,0.00,,,0.00,0,HR-IXP-WINDi_r2_v1.2,2013-02-18 06:12:00,
2013-02-17 22:18:00,54.4,50.2,30.05,ESE,109,2.0,5.0,86,0.00,,,0.00,0,HR-IXP-WINDi_r2_v1.2,2013-02-18 06:18:00,
2013-02-17 22:23:00,54.5,50.0,30.05,East,96,1.0,5.0,85,0.00,,,0.00,0,HR-IXP-WINDi_r2_v1.2,2013-02-18 06:23:00,
2013-02-17 22:28:00,54.6,50.1,30.05,ESE,121,3.0,5.0,85,0.00,,,0.00,0,HR-IXP-WINDi_r2_v1.2,2013-02-18 06:28:00,
2013-02-17 22:33:00,54.8,50.3,30.05,East,91,3.0,5.0,85,0.00,,,0.00,0,HR-IXP-WINDi_r2_v1.2,2013-02-18 06:33:00,
2013-02-17 22:39:00,54.8,50.0,30.05,East,83,2.0,6.0,84,0.00,,,0.00,0,HR-IXP-WINDi_r2_v1.2,2013-02-18 06:39:00,
2013-02-17 22:44:00,54.8,50.0,30.05,East,86,2.0,6.0,84,0.00,,,0.00,0,HR-IXP-WINDi_r2_v1.2,2013-02-18 06:44:00,
2013-02-17 22:49:00,54.8,50.0,30.05,East,80,3.0,5.0,84,0.00,,,0.00,0,HR-IXP-WINDi_r2_v1.2,2013-02-18 06:49:00,
2013-02-17 22:54:00,54.7,49.9,30.05,ENE,77,3.0,5.0,84,0.00,,,0.00,0,HR-IXP-WINDi_r2_v1.2,2013-02-18 06:54:00,
2013-02-17 23:00:00,54.6,49.8,30.05,ENE,70,3.0,5.0,84,0.00,,,0.00,0,HR-IXP-WINDi_r2_v1.2,2013-02-18 07:00:00,
2013-02-17 23:05:00,54.6,49.8,30.05,East,80,3.0,5.0,84,0.00,,,0.00,0,HR-IXP-WINDi_r2_v1.2,2013-02-18 07:05:00,
2013-02-17 23:10:00,54.6,49.8,30.05,East,80,2.0,5.0,84,0.00,,,0.00,0,HR-IXP-WINDi_r2_v1.2,2013-02-18 07:10:00,
2013-02-17 23:15:00,54.7,49.9,30.05,East,85,3.0,3.0,84,0.00,,,0.00,0,HR-IXP-WINDi_r2_v1.2,2013-02-18 07:15:00,
2013-02-17 23:20:00,54.8,50.0,30.05,ESE,106,1.0,5.0,84,0.00,,,0.00,0,HR-IXP-WINDi_r2_v1.2,2013-02-18 07:20:00,
2013-02-17 23:25:00,54.9,49.8,30.05,ESE,107,3.0,5.0,83,0.00,,,0.00,0,HR-IXP-WINDi_r2_v1.2,2013-02-18 07:25:00,
2013-02-17 23:31:00,54.8,49.7,30.05,East,85,0.0,5.0,83,0.00,,,0.00,0,HR-IXP-WINDi_r2_v1.2,2013-02-18 07:31:00,
2013-02-17 23:36:00,54.8,49.3,30.05,East,98,2.0,5.0,82,0.00,,,0.00,0,HR-IXP-WINDi_r2_v1.2,2013-02-18 07:36:00,
2013-02-17 23:41:00,54.8,49.3,30.05,ESE,103,2.0,5.0,82,0.00,,,0.00,0,HR-IXP-WINDi_r2_v1.2,2013-02-18 07:41:00,
2013-02-17 23:46:00,54.8,49.3,30.05,ESE,112,1.0,5.0,82,0.00,,,0.00,0,HR-IXP-WINDi_r2_v1.2,2013-02-18 07:46:00,
2013-02-17 23:51:00,54.8,49.3,30.05,ESE,112,2.0,4.0,82,0.00,,,0.00,0,HR-IXP-WINDi_r2_v1.2,2013-02-18 07:51:00,
2013-02-17 23:56:00,54.7,49.3,30.05,ESE,106,0.0,5.0,82,0.00,,,0.00,0,HR-IXP-WINDi_r2_v1.2,2013-02-18 07:56:00,